Wind_Speed
11 12 12 12 12 13 13 14 14 15 15 15 16 17 18 19 19 20 20 21 22 23 25 26 27 27 27 28 29 30 31 31 31 31 30 29 28 28 28 28 29 30 30 29 29 29 29 30 30 30 31 31 31 31 31 30 31 31 32 32 33 33 33 33 33 32 31 29 27 26 26 25 24 23 22 22 22 22 23 23 23 21 18 16 12 8 6 5
11 11 11 11 11 12 13 13 13 14 15 15 16 17 18 18 18 19 19 21 22 23 25 26 27 27 27 27 28 29 30 31 31 32 31 30 30 29 29 30 30 30 30 29 29 30 30 31 32 32 32 32 31 31 30 30 30 30 30 31 31 31 32 32 32 32 32 31 28 25 25 25 24 23 22 21 20 20 20 21 22 22 19 17 16 13 9 7
10 10 9 10 10 11 12 12 13 14 14 15 16 16 17 17 17 18 19 20 22 23 24 26 26 26 27 27 27 28 29 30 31 31 31 31 30 30 30 31 30 30 29 29 30 30 31 32 33 33 34 34 33 32 32 31 31 30 30 30 30 30 30 30 30 31 31 32 30 27 24 23 24 23 22 21 20 20 20 20 20 21 21 19 17 15 13 10
10 9 8 9 10 10 11 12 13 14 14 14 15 15 16 16 17 17 19 20 21 22 23 25 26 26 26 27 27 27 28 29 30 30 30 30 30 30 30 30 30 29 29 30 30 31 32 33 33 33 33 34 34 33 33 32 32 31 30 30 30 30 30 29 29 29 30 30 31 29 25 22 21 22 22 21 20 20 20 19 19 20 21 20 19 17 15 13
9 8 8 8 9 10 11 11 13 13 13 13 13 14 15 16 16 17 18 19 20 21 23 24 25 25 26 26 27 27 27 27 28 29 30 29 29 29 29 30 30 30 30 31 31 31 32 32 32 32 32 33 33 33 33 33 33 32 32 32 32 32 31 30 29 28 28 28 28 29 28 24 21 20 21 20 20 19 19 19 18 18 19 20 19 18 16 14
8 7 8 8 9 10 10 11 12 12 11 11 12 13 14 14 15 16 17 18 20 21 22 23 24 24 25 25 26 27 27 26 27 27 28 29 28 28 28 29 30 30 30 31 31 31 31 31 31 31 32 32 33 33 33 33 33 34 34 34 34 33 32 31 30 29 28 27 26 26 27 26 24 21 19 19 19 18 17 18 18 18 17 18 18 18 18 15
7 7 8 9 10 10 10 10 11 12 10 10 10 11 12 13 14 15 16 18 19 20 21 22 23 23 24 24 25 26 27 26 27 26 27 28 27 27 27 27 28 29 29 29 29 29 29 29 30 30 31 31 32 32 33 33 34 34 35 35 35 35 34 32 31 30 28 27 26 25 24 25 25 23 21 19 18 17 16 15 15 17 18 18 18 17 18 17
7 8 10 11 11 10 10 10 11 11 10 9 9 10 11 12 13 14 15 16 18 19 21 22 22 23 23 24 24 25 26 26 26 26 26 26 27 26 26 26 27 28 28 28 28 28 27 28 28 29 29 30 31 31 32 33 33 34 34 35 36 36 35 34 33 31 30 29 27 25 24 23 23 24 23 20 18 17 16 14 13 15 17 18 19 18 17 18
8 9 11 11 11 10 9 9 10 10 10 9 9 10 10 11 12 12 13 15 16 18 20 21 22 22 23 23 24 24 24 25 25 25 25 25 26 26 26 26 25 26 27 27 27 27 27 27 27 28 28 29 30 31 31 32 32 33 32 33 35 37 37 36 35 33 32 31 30 27 25 24 22 22 22 22 20 18 16 15 13 12 14 17 20 20 18 17
8 9 10 11 11 11 10 10 10 10 10 9 9 10 10 11 11 12 13 14 15 17 19 20 21 21 22 23 23 24 24 24 24 24 24 24 25 25 26 26 26 26 26 27 27 27 27 27 27 27 28 29 30 31 31 32 32 32 32 31 32 36 37 37 37 36 35 34 33 31 28 26 25 22 21 21 21 20 17 16 15 13 13 14 17 20 21 18
8 9 10 10 11 11 10 11 11 11 10 10 10 10 11 11 12 12 13 14 15 16 18 18 20 21 22 22 23 24 24 24 24 24 24 24 24 24 25 26 26 26 26 27 27 27 27 27 27 27 27 28 29 31 32 32 32 32 32 31 31 33 36 37 38 39 38 37 35 34 32 29 28 26 24 22 21 20 19 16 15 15 14 13 15 17 21 21
7 8 9 10 10 10 10 11 12 12 12 12 12 12 11 12 13 13 14 15 15 16 17 17 18 20 21 22 22 23 24 24 24 24 24 23 23 23 24 25 25 26 26 27 27 28 28 27 27 27 27 28 29 30 31 32 33 33 33 33 32 32 35 37 38 38 40 39 37 36 34 32 30 29 28 26 24 22 20 19 17 16 15 14 15 15 17 20
8 8 9 9 9 10 10 11 12 13 13 14 14 14 13 13 14 14 15 15 16 16 16 16 17 19 20 21 22 23 24 24 24 25 24 24 23 22 23 23 24 25 26 26 27 28 29 29 29 28 28 28 29 29 30 31 32 33 33 33 34 33 34 36 37 37 39 40 40 38 36 33 30 28 28 28 27 25 23 22 20 18 17 16 16 16 16 17
8 8 8 9 9 9 10 11 12 13 14 15 15 15 15 14 14 15 16 16 17 16 16 16 17 18 19 20 21 22 23 24 24 25 25 25 24 23 22 23 23 24 25 26 27 28 29 29 29 29 29 29 29 30 30 31 32 33 33 33 34 34 34 34 36 36 36 38 41 41 38 36 32 27 26 26 26 27 26 24 23 21 19 18 18 18 18 17
8 8 9 9 9 9 9 11 12 13 14 15 16 16 16 15 15 16 16 17 17 17 16 16 16 17 18 19 20 21 21 23 24 24 25 25 25 24 23 22 23 24 24 25 26 27 28 29 29 30 30 30 30 30 31 31 31 33 33 34 34 35 35 34 35 35 35 35 38 41 40 38 36 31 26 23 24 25 26 26 25 24 22 21 20 20 20 19
8 9 9 9 9 9 10 10 12 13 15 16 16 17 17 17 17 17 17 17 18 18 17 17 17 17 18 19 19 20 21 22 23 24 25 25 25 25 24 23 23 24 25 25 25 27 28 29 29 30 30 30 30 30 31 31 32 32 33 34 34 35 36 36 35 34 35 34 35 39 40 39 39 37 31 25 22 22 24 25 25 25 24 23 22 21 21 21
9 9 10 10 10 10 11 11 12 13 15 16 17 17 18 19 19 19 19 19 19 19 19 18 18 17 18 19 19 20 21 21 22 23 24 25 25 25 25 24 24 25 26 26 26 27 29 30 30 30 30 31 31 30 31 31 32 32 33 33 34 35 36 37 36 35 35 34 33 36 39 39 39 40 37 32 27 23 23 24 25 25 25 25 24 23 22 22
9 10 10 11 11 11 11 12 12 13 14 15 16 18 19 20 20 21 21 21 21 20 20 20 19 18 18 19 20 20 21 21 22 23 24 25 25 25 25 25 25 26 27 28 27 27 30 31 31 31 31 31 31 31 31 31 32 33 33 33 34 34 35 36 36 35 35 35 34 34 37 39 38 39 39 37 34 29 26 25 24 25 25 25 25 25 24 23
9 9 10 11 11 11 12 12 12 13 14 15 16 17 18 20 21 21 22 23 23 23 22 22 21 20 20 20 21 21 22 22 22 22 23 24 25 26 26 25 26 26 28 29 29 28 30 32 32 33 32 31 31 31 31 32 32 33 34 34 35 35 35 35 36 36 35 35 35 33 35 38 38 38 39 39 38 34 29 25 25 25 26 26 26 26 25 24
8 9 10 10 11 12 12 13 13 14 14 15 16 16 18 19 21 22 23 23 24 25 25 24 23 22 21 21 22 23 23 23 23 23 23 24 25 26 26 26 26 27 28 29 30 29 30 32 33 33 33 32 31 31 31 32 33 33 34 35 35 35 36 36 36 36 36 36 36 33 33 37 38 38 39 39 40 38 33 27 25 24 25 27 27 26 26 25
9 10 10 11 11 12 13 13 14 15 15 16 17 17 18 19 20 22 23 24 25 25 26 26 26 25 24 23 23 24 24 25 25 25 24 24 24 25 26 27 27 27 28 30 30 30 30 31 32 33 33 33 33 32 32 32 33 33 33 34 35 35 35 37 37 37 37 36 37 35 33 36 38 39 39 39 40 41 38 33 29 26 25 26 28 28 26 25
10 11 12 12 12 13 13 14 14 15 16 16 17 18 18 19 20 21 22 23 24 25 26 27 28 28 26 25 25 25 26 26 26 27 26 25 25 25 26 27 28 28 29 30 31 31 30 31 32 33 33 34 35 34 33 33 33 33 32 33 35 35 35 36 37 37 37 37 37 37 35 36 38 39 40 40 41 41 40 38 33 29 26 25 27 29 28 26
10 11 13 13 14 14 14 14 14 15 16 16 17 18 19 20 20 21 22 23 24 25 26 27 27 28 28 28 27 27 27 27 28 29 28 28 27 27 27 28 29 29 30 30 31 32 32 32 32 32 33 34 35 35 34 34 34 34 33 33 34 35 34 35 36 36 36 37 38 38 37 37 38 39 40 40 41 42 41 40 37 32 28 25 25 28 29 28
11 12 14 14 15 15 15 15 16 16 17 17 18 19 19 20 21 22 23 24 25 25 26 27 27 27 28 28 29 29 29 29 29 30 30 30 30 30 29 30 30 31 32 32 32 32 33 33 33 33 33 34 35 36 36 36 36 36 35 34 35 35 35 35 35 34 35 36 37 39 39 39 40 40 41 41 42 43 42 41 40 36 32 28 25 26 27 28
13 14 15 15 16 16 16 17 17 18 18 19 19 20 20 21 22 23 23 24 25 26 26 27 27 27 27 28 29 29 30 30 30 31 32 32 32 32 32 32 32 33 34 35 35 34 35 35 35 35 35 36 36 38 38 38 39 39 38 38 37 37 37 37 36 35 35 34 35 38 39 39 41 42 42 43 43 44 43 41 41 40 36 31 29 27 25 27
14 15 16 17 17 17 18 18 19 20 20 20 21 21 22 22 23 23 24 25 25 26 27 28 28 28 28 28 28 28 29 30 31 32 33 33 34 34 33 33 34 35 36 37 37 37 37 37 37 38 38 38 38 39 40 40 41 42 42 41 41 41 39 39 39 38 38 38 37 40 40 39 40 42 44 44 45 45 45 43 41 42 36 30 33 32 26 25
16 17 17 18 19 20 20 21 21 22 22 23 23 23 24 24 25 25 26 26 27 28 28 29 29 29 29 28 28 28 28 30 31 33 34 34 35 35 35 35 35 36 37 39 39 39 40 40 39 40 40 40 40 41 42 42 43 44 44 44 44 44 43 43 43 42 43 42 42 43 44 43 42 42 43 45 46 46 46 44 43 43 36 31 37 37 31 27
20 20 20 20 21 21 22 23 24 24 25 25 25 26 26 27 27 28 28 29 29 30 30 31 31 31 31 30 30 29 29 30 30 32 34 35 36 36 36 36 36 37 38 39 41 41 41 41 41 41 42 43 43 43 43 44 45 46 47 47 47 47 47 47 46 46 47 47 46 47 47 46 46 44 43 44 47 47 46 45 45 43 38 36 40 40 36 32
24 24 23 23 23 24 24 25 25 27 27 28 28 28 29 30 31 31 31 32 32 32 33 33 33 33 33 33 33 32 31 31 31 32 33 34 35 36 37 37 38 38 39 40 41 42 43 43 43 43 43 44 45 45 45 46 47 48 48 49 50 50 50 50 50 50 50 50 49 50 49 49 48 48 46 45 46 46 45 45 46 46 43 42 44 42 40 37
27 27 27 27 27 27 28 28 28 29 30 30 31 31 32 33 34 34 34 34 34 34 34 35 35 35 35 35 36 36 35 34 33 34 34 35 36 37 37 38 39 39 40 40 41 42 44 44 44 45 45 45 46 47 48 48 49 50 50 51 52 52 52 52 52 52 53 53 51 50 51 51 51 50 50 48 46 44 45 44 45 45 45 46 47 45 42 41
30 30 30 30 30 30 30 30 31 31 32 33 33 34 34 35 36 36 37 37 36 36 35 36 37 37 38 38 37 37 37 36 36 35 35 36 37 38 38 39 40 41 40 41 41 42 44 44 44 45 46 46 47 49 50 50 51 52 52 53 53 53 54 54 54 54 54 55 54 52 53 54 53 53 52 52 49 46 46 45 44 45 45 46 48 47 44 42
33 33 33 33 33 33 33 32 33 34 34 35 36 36 36 37 38 38 38 39 39 39 38 38 38 39 40 40 40 40 39 38 38 37 37 37 37 38 39 39 40 41 41 41 42 42 44 44 45 46 46 47 48 50 51 52 53 54 55 55 55 54 54 55 56 55 54 55 56 54 55 57 56 55 53 53 53 51 49 48 47 46 46 45 48 49 47 43
35 36 36 36 36 36 36 36 36 36 37 38 38 39 39 40 41 41 41 40 41 41 41 41 41 42 42 43 43 43 42 41 40 39 39 39 38 38 39 39 40 41 41 41 42 43 44 45 47 48 48 49 50 51 53 54 55 57 57 57 57 55 55 56 57 56 54 56 58 58 58 59 60 58 55 55 54 54 54 52 50 48 47 45 45 47 48 45
38 39 39 39 39 39 39 39 39 39 40 41 41 41 41 42 43 43 43 43 43 43 43 43 44 44 45 45 46 46 45 44 42 42 41 41 40 39 39 39 39 40 41 41 41 42 44 46 47 49 50 51 53 54 55 57 58 59 59 59 58 58 59 59 58 57 57 58 61 62 61 62 63 62 60 60 58 58 57 54 52 50 48 47 46 45 47 48
41 41 42 42 42 42 42 42 43 43 43 44 44 44 44 44 44 45 45 45 45 45 44 45 45 46 47 48 49 49 47 46 44 44 44 43 42 41 39 39 39 40 40 40 41 42 43 46 48 50 51 52 54 56 57 59 60 60 59 60 60 61 62 61 60 61 62 61 62 64 64 64 66 66 65 64 64 63 61 58 56 54 52 50 50 48 47 48
44 44 44 44 45 45 45 46 46 46 46 47 47 47 47 46 46 47 47 47 48 48 47 47 48 48 49 50 51 51 49 48 47 46 46 45 44 42 41 40 40 41 41 41 42 44 45 47 50 52 53 54 57 59 60 61 62 62 62 63 64 65 65 64 63 65 65 64 62 64 67 67 70 71 69 67 67 67 65 63 61 59 55 53 52 52 51 49
46 47 47 47 48 48 48 49 49 49 50 50 50 50 49 49 49 48 48 49 49 50 50 50 51 51 51 52 53 52 50 49 49 48 47 46 44 43 42 42 42 42 43 44 45 46 47 48 51 54 57 59 60 62 63 63 65 66 66 67 68 69 69 69 69 69 69 68 65 66 70 72 74 75 73 71 72 73 69 67 66 62 59 56 53 52 53 52
48 49 50 50 50 51 51 52 52 52 53 53 53 52 52 51 51 50 50 50 51 51 52 52 53 53 54 55 55 54 52 51 51 50 48 46 45 44 43 43 44 45 46 48 48 49 50 50 52 55 59 62 63 65 66 66 67 68 69 70 70 70 72 74 74 73 74 73 71 70 71 74 77 79 77 75 76 78 75 71 69 64 61 59 55 53 53 53
51 52 52 53 53 54 54 55 55 55 56 56 56 55 54 54 54 53 52 52 52 53 53 54 55 55 56 57 56 54 53 53 53 51 49 47 46 46 47 46 47 47 48 49 50 52 52 53 54 57 60 63 65 67 68 69 70 70 71 72 72 71 74 77 78 78 79 79 79 76 71 75 80 80 78 79 79 80 78 74 70 66 63 61 58 56 54 52
55 55 55 56 56 57 57 58 58 58 58 58 58 57 56 56 56 55 55 54 54 54 55 56 57 57 58 58 57 55 55 54 53 51 49 48 48 49 50 51 51 51 51 52 53 54 55 56 58 60 63 65 67 69 70 72 73 73 74 75 76 77 79 81 82 83 85 85 86 84 74 74 83 81 78 81 82 81 79 75 72 68 64 62 60 58 56 53
58 58 58 59 59 60 61 61 61 61 61 60 60 59 59 58 58 57 57 56 56 56 56 57 58 59 59 59 58 57 56 55 53 51 50 50 50 51 52 53 54 54 55 55 56 57 59 60 61 63 65 67 69 72 73 74 75 75 76 76 78 81 82 85 86 86 89 88 90 93 81 75 85 87 81 82 82 80 80 76 72 69 65 64 62 59 57 55
61 61 62 62 62 62 63 63 63 63 62 62 62 62 62 61 60 60 59 59 58 58 59 59 60 60 60 59 58 58 57 55 54 53 52 52 53 54 54 55 56 57 58 59 59 61 62 63 65 66 68 69 71 73 75 76 76 77 78 79 80 83 85 88 89 90 92 90 93 98 87 80 90 92 85 85 83 81 80 76 73 70 66 65 63 60 58 57
64 64 65 65 64 64 65 65 65 65 65 64 64 64 64 64 63 63 62 62 61 61 61 62 61 61 60 60 60 59 57 55 55 55 55 55 56 57 57 58 59 59 61 62 63 65 66 67 68 69 71 73 74 76 76 76 77 79 81 82 83 85 87 89 91 92 93 91 95 99 91 88 94 93 88 88 86 81 79 76 73 71 68 67 64 61 60 59
65 66 66 66 66 66 66 67 67 67 67 66 66 66 66 66 65 65 65 65 65 64 64 63 63 62 62 61 61 60 59 57 57 58 58 59 59 60 60 61 62 63 64 65 66 68 69 70 72 72 74 76 78 79 79 79 80 81 82 84 86 87 89 91 93 94 94 95 98 99 96 94 95 92 91 92 87 81 78 76 73 71 70 69 66 63 61 61
66 66 67 67 68 68 68 69 69 69 69 68 68 67 67 67 67 67 68 68 68 67 66 65 65 64 64 63 62 62 61 61 60 61 62 62 63 64 64 65 66 66 67 68 69 71 72 73 75 76 77 78 79 81 84 84 84 84 85 86 87 89 91 93 95 97 99 102 102 102 104 102 97 94 95 95 90 83 78 75 73 71 69 69 68 65 63 63
68 68 69 69 70 70 70 71 71 71 71 70 70 69 69 69 69 69 70 70 70 70 69 68 68 67 66 65 64 64 64 64 64 64 65 66 66 67 68 68 69 69 70 71 72 74 75 75 77 79 80 81 82 84 86 88 87 87 87 89 90 90 91 94 96 99 104 106 103 105 109 107 101 99 99 97 93 88 83 79 75 72 70 70 70 69 67 66
70 70 71 71 71 72 72 72 72 72 72 72 72 72 71 71 71 71 71 71 72 72 71 71 70 69 68 67 66 66 66 67 67 67 68 69 69 70 71 71 71 72 73 73 74 76 77 78 80 82 83 85 86 87 89 90 90 90 91 92 93 94 95 97 100 103 106 106 103 103 106 105 103 102 99 96 92 88 85 84 81 80 78 75 74 73 72 71
72 72 72 73 73 74 74 74 74 74 74 74 74 73 73 73 73 72 72 73 74 74 73 73 72 71 70 69 69 69 69 69 70 70 71 71 72 73 73 74 74 74 75 76 77 79 80 81 83 86 87 89 90 91 92 93 93 94 95 96 97 99 101 103 104 105 107 107 103 102 103 105 105 102 98 95 92 87 85 84 84 85 85 83 81 78 76 76
74 74 74 75 75 75 76 76 76 76 76 75 75 74 74 74 74 75 75 75 76 77 75 74 73 72 71 72 71 72 72 73 73 73 73 73 74 74 74 75 76 77 79 80 82 84 85 87 88 90 91 93 94 94 95 95 96 96 98 99 101 104 106 108 108 108 110 109 107 107 108 108 108 105 100 97 95 93 91 90 89 88 88 87 85 83 81 80
76 76 76 76 76 77 77 77 77 76 76 76 75 75 76 76 77 77 78 78 79 78 77 76 75 74 74 74 74 74 75 75 75 75 75 75 76 76 77 78 80 81 83 85 87 89 91 92 93 94 94 96 97 97 97 97 98 99 100 102 105 107 109 110 111 112 113 113 112 114 114 112 110 107 104 100 99 99 99 97 95 92 91 89 87 85 83 82
78 78 78 77 77 77 78 78 78 77 77 77 77 77 78 79 80 80 81 81 81 80 79 78 77 77 77 76 77 77 76 77 77 77 78 78 79 80 81 82 84 85 87 89 92 94 95 96 97 98 97 98 99 99 99 99 101 102 103 106 108 109 110 111 113 114 116 117 117 117 116 113 109 106 104 103 102 102 102 101 98 95 92 90 86 83 82 81
81 80 80 79 77 78 79 80 80 80 79 80 80 80 81 82 82 82 81 81 81 81 80 80 80 79 79 79 79 79 79 79 80 80 81 82 83 85 86 87 88 90 91 94 95 97 99 99 100 102 101 100 102 103 102 102 104 106 108 110 111 110 111 112 112 115 119 120 120 120 117 113 107 103 103 104 104 104 103 101 98 95 91 87 83 80 78 79
Wind_Direction
68 68 69 69 67 63 57 51 46 43 42 41 41 44 46 46 46 45 42 37 34 32 32 32 31 31 30 30 29 29 29 29 29 30 30 30 31 31 31 30 29 29 28 28 28 28 27 27 27 27 26 26 27 27 26 26 25 23 23 23 23 24 24 22 19 16 15 15 13 10 9 12 13 15 18 22 23 22 19 15 13 15 17 13 8 11 30 44
68 67 67 66 63 57 52 47 44 43 43 45 48 50 50 48 47 44 41 37 33 32 32 32 31 30 29 29 29 29 30 30 30 31 31 32 33 33 33 33 32 32 32 32 32 32 32 32 33 32 32 31 29 28 27 25 25 23 22 21 22 22 23 23 21 19 15 13 12 8 4 4 5 7 11 14 16 17 17 14 9 7 9 10 8 4 0 8
69 67 64 61 57 52 47 44 44 45 46 50 55 54 52 50 48 44 40 37 33 30 31 31 30 30 29 28 27 28 29 30 31 31 32 33 33 34 35 35 35 35 35 35 35 36 37 38 38 37 37 35 34 33 31 29 28 26 24 22 20 20 20 19 19 20 18 16 14 11 5 1 360 360 3 7 7 8 11 11 6 1 2 4 3 4 1 356
70 65 59 55 52 49 46 45 46 47 50 55 59 56 52 51 48 43 39 35 31 29 29 29 29 29 29 28 27 26 27 29 30 30 32 33 34 35 36 37 37 37 37 38 38 39 40 42 42 41 40 39 38 37 35 33 31 29 26 23 20 18 17 16 15 15 16 16 15 14 11 4 358 356 356 0 1 0 2 4 2 356 355 358 356 356 359 358
67 60 53 47 44 44 45 48 48 50 55 59 61 57 52 50 48 44 39 33 30 28 27 28 27 27 28 27 27 27 26 27 28 29 31 34 36 36 36 37 39 40 40 40 41 41 42 44 45 44 41 40 39 39 38 35 33 31 29 26 22 20 18 17 14 12 12 12 13 14 12 8 1 354 352 354 355 355 354 354 354 351 349 351 351 347 348 355
62 53 46 41 40 41 46 49 49 53 58 60 59 55 51 48 46 44 39 33 29 27 26 26 25 25 26 26 27 27 27 26 26 28 29 32 35 37 36 36 38 40 41 41 42 42 42 43 44 44 42 40 38 38 39 37 34 32 30 29 26 24 22 20 18 14 12 10 9 10 11 10 5 357 350 349 350 349 349 347 344 342 342 343 345 342 338 344
59 49 44 41 42 43 46 47 48 52 56 56 54 50 46 43 42 41 39 34 29 26 24 23 23 23 24 25 25 25 26 25 25 27 28 30 32 34 34 33 33 35 37 40 42 42 41 40 40 42 43 42 39 38 38 37 35 32 30 29 28 27 26 24 22 17 14 11 9 8 8 8 8 4 355 347 344 343 342 341 336 332 333 334 336 339 336 336
58 48 45 44 44 45 44 41 43 47 49 47 45 42 39 36 35 35 35 33 29 25 22 20 20 21 22 23 23 24 24 24 25 26 27 28 29 31 32 32 31 31 32 36 40 42 41 40 38 39 41 42 42 39 38 37 36 34 30 27 27 28 27 26 24 21 17 14 11 9 5 4 5 7 3 352 342 336 335 335 331 325 324 326 327 331 334 333
55 47 45 44 44 43 38 33 34 39 41 39 35 32 30 27 27 27 28 28 27 24 21 18 17 18 20 21 23 23 22 23 24 25 26 27 28 29 31 32 32 30 30 31 34 38 39 39 38 36 37 39 41 41 39 38 38 37 33 28 26 27 27 25 24 22 19 17 14 10 6 2 360 2 4 1 351 338 330 328 327 320 315 315 318 322 328 330
51 43 41 40 39 38 32 25 26 28 29 30 28 23 21 17 16 17 17 20 21 22 21 18 15 16 20 21 23 23 22 21 22 23 24 26 27 27 29 31 32 30 29 28 29 32 35 36 36 34 34 35 37 38 38 38 38 40 38 33 27 25 26 24 22 21 21 20 18 13 9 4 358 356 358 360 0 352 337 325 321 317 310 306 309 313 319 325
44 38 36 34 32 31 24 18 19 19 17 20 21 19 15 10 7 7 8 10 14 18 20 20 17 15 17 21 23 23 23 22 21 21 22 23 25 25 25 28 30 29 27 26 25 27 29 31 33 33 32 32 33 34 35 36 36 39 41 39 32 26 25 24 21 20 20 21 22 18 13 8 0 355 354 353 357 359 351 336 321 314 310 304 301 305 311 318
36 32 30 29 27 23 15 11 12 12 11 12 15 15 13 7 3 2 3 5 9 15 19 21 20 16 15 18 22 23 23 22 21 21 21 21 21 22 21 22 25 27 25 22 22 24 25 26 29 31 30 30 30 30 31 32 33 34 39 41 38 30 25 23 21 19 17 18 20 20 15 12 4 355 353 350 348 352 354 349 335 320 313 307 299 298 302 309
29 26 24 24 22 17 9 4 4 4 5 8 10 10 9 5 0 359 359 1 5 12 18 19 18 15 13 14 18 21 21 20 21 21 21 20 19 19 18 17 19 22 22 19 18 20 22 22 23 26 27 28 27 27 27 28 29 29 31 36 39 36 29 24 21 19 16 14 15 17 15 13 9 358 351 349 346 345 348 349 345 334 321 311 303 298 297 300
26 22 21 19 17 12 5 360 357 357 358 1 4 4 3 1 357 355 355 355 358 5 12 15 14 11 9 9 13 18 19 17 18 20 20 21 19 18 16 14 13 16 19 17 14 14 18 19 19 20 23 24 24 24 24 24 24 24 25 27 31 34 32 27 22 20 17 12 11 14 13 12 12 5 353 347 345 343 343 343 344 342 333 321 310 304 300 298
24 20 18 16 13 8 3 357 353 351 351 353 356 357 356 356 354 351 350 349 351 356 2 7 8 6 4 3 7 13 16 15 15 17 19 19 19 17 16 13 10 10 14 15 11 9 11 15 15 16 17 19 20 20 21 20 20 20 20 20 22 26 29 27 23 20 18 14 10 10 11 8 8 8 360 348 342 341 340 339 339 340 339 331 320 312 305 298
19 16 14 12 9 4 0 355 351 348 347 348 348 348 348 349 348 347 347 345 345 346 351 356 359 360 358 358 2 7 11 12 12 14 16 17 16 15 15 14 10 8 9 12 10 6 6 9 11 12 12 13 15 16 16 16 16 16 16 16 16 18 21 23 21 18 17 15 10 8 9 7 4 4 3 355 345 338 337 337 336 336 336 335 327 317 309 300
17 12 8 6 5 1 358 355 351 347 345 344 344 343 342 342 342 342 342 342 340 340 342 344 349 352 351 353 357 1 6 7 9 11 13 14 14 12 12 12 10 8 7 9 8 5 3 5 6 8 8 8 9 11 11 12 12 12 13 12 12 13 15 17 16 14 12 12 10 7 8 6 2 1 1 358 352 343 336 335 334 333 332 331 329 323 314 305
17 12 6 2 0 359 357 354 351 348 345 344 341 340 339 338 338 337 337 337 336 336 336 337 339 343 344 346 349 353 357 360 3 7 9 11 11 10 8 7 6 4 3 4 5 3 1 2 3 3 5 4 4 6 7 8 8 8 8 9 8 9 12 12 11 9 7 7 7 5 5 5 1 359 358 357 356 350 341 333 329 328 326 325 326 324 319 310
8 5 1 359 357 355 354 353 350 348 346 344 342 340 338 337 336 335 333 332 331 331 331 332 333 335 337 338 340 343 347 350 354 358 3 6 7 7 5 4 2 0 359 360 1 0 358 359 1 2 3 2 2 2 3 4 4 5 4 4 4 4 7 10 8 5 3 1 1 0 0 3 0 356 356 355 354 355 348 335 326 322 321 320 319 320 319 313
350 349 347 348 349 350 350 350 349 348 345 344 342 341 340 338 337 336 334 332 330 328 327 327 328 330 331 331 333 335 338 341 344 349 355 359 1 2 2 360 359 358 357 358 359 358 357 359 1 2 4 3 2 1 1 1 1 2 1 359 0 360 360 4 6 4 1 358 356 356 354 358 359 354 354 353 350 352 352 344 332 322 317 316 314 313 314 312
339 337 334 335 337 340 342 344 346 347 346 345 343 342 340 339 339 338 336 335 333 330 327 325 324 325 326 326 327 328 330 333 336 339 345 350 353 355 356 355 354 354 355 357 358 357 356 358 360 1 3 4 3 2 1 360 358 359 359 356 356 357 354 357 2 1 360 357 354 353 350 351 356 352 352 352 348 349 351 348 342 329 319 313 311 309 307 308
334 332 330 329 328 330 333 335 339 342 344 345 345 344 342 341 339 337 337 337 336 334 332 327 323 322 322 322 322 322 324 326 329 331 335 340 343 345 347 348 348 348 350 353 356 357 355 356 357 359 360 0 0 1 1 360 358 357 359 356 355 356 353 352 357 358 357 356 353 353 349 347 351 351 350 350 347 348 349 346 344 337 326 314 307 305 305 303
327 326 325 324 325 325 326 327 329 333 336 339 341 342 342 342 341 340 339 339 337 337 335 332 327 322 320 318 318 318 320 321 323 325 328 332 334 337 339 340 341 341 343 346 350 353 352 352 353 355 356 356 356 356 357 356 355 356 357 356 355 355 354 352 354 354 354 355 352 352 352 346 345 347 347 346 344 346 347 345 342 339 332 320 306 301 301 301
319 321 320 320 320 321 323 323 323 326 328 330 333 336 338 340 341 341 341 341 339 338 336 333 331 327 322 318 316 316 316 317 318 320 323 326 327 330 332 332 333 333 335 337 341 345 346 346 347 348 349 350 351 352 352 351 350 351 352 353 353 353 354 353 355 354 352 354 350 350 353 347 340 341 344 343 341 342 344 342 340 338 334 326 316 303 297 297
312 315 316 316 317 319 320 322 322 323 322 323 326 328 331 333 335 336 338 339 339 339 337 335 333 331 327 322 317 315 314 314 315 315 318 320 322 324 326 327 327 327 328 330 333 337 338 339 341 342 342 343 345 346 347 347 346 346 347 348 349 350 350 351 353 353 351 352 349 347 352 349 338 336 338 339 338 339 340 339 337 336 334 327 321 314 301 294
303 308 311 313 315 316 318 320 320 321 321 321 322 323 324 326 327 329 331 333 334 335 336 336 335 333 330 326 321 317 314 313 312 312 313 315 317 319 321 322 322 323 323 324 327 330 331 333 335 337 337 337 338 340 342 343 343 343 343 343 344 345 347 347 348 349 349 350 347 345 349 349 341 335 334 334 335 336 337 336 333 333 334 324 319 318 309 297
295 300 304 308 311 314 316 317 318 320 321 321 322 322 322 322 322 323 325 327 328 330 331 332 333 333 331 328 324 321 317 313 311 310 310 311 313 314 317 318 319 320 321 321 323 325 327 329 331 333 333 333 333 335 336 338 338 339 339 339 340 341 343 344 344 345 347 347 345 343 344 344 342 337 333 331 331 333 334 332 329 330 331 321 317 317 312 305
291 294 299 302 306 309 312 314 316 318 319 320 321 322 322 322 322 322 322 323 324 326 327 329 330 330 329 329 327 325 321 318 314 311 310 310 310 311 313 315 316 317 318 319 320 321 324 325 328 330 330 330 330 331 332 333 334 335 335 336 337 338 340 341 341 343 344 344 342 341 340 340 339 338 335 331 329 331 331 328 325 326 324 316 315 316 312 308
291 293 296 299 302 305 307 310 313 315 316 317 318 319 321 322 322 322 322 322 322 323 325 326 327 328 329 329 328 327 324 322 318 315 312 310 309 309 310 311 312 314 315 316 317 319 320 323 325 327 328 328 327 328 328 329 330 331 332 333 334 336 338 338 339 340 341 340 340 338 337 337 336 335 334 332 330 329 327 324 322 322 319 315 314 314 312 309
290 292 295 298 300 303 305 307 309 312 314 315 315 316 318 320 320 321 322 321 320 321 322 323 324 325 326 327 327 326 325 323 320 317 315 313 310 309 309 309 309 311 312 314 316 317 318 321 324 325 326 326 325 325 325 326 326 328 329 330 332 333 335 336 336 337 337 335 336 337 335 334 334 332 331 330 329 326 323 321 319 317 315 313 311 311 310 308
288 291 293 295 298 300 302 305 307 309 311 312 312 312 314 316 317 318 319 319 319 319 319 319 321 322 323 324 324 324 323 322 319 317 316 314 312 310 308 308 308 309 311 313 315 316 317 319 322 322 323 323 322 322 323 323 323 325 327 328 330 331 333 334 333 333 334 332 334 337 335 333 332 330 329 327 326 325 322 320 318 314 312 310 308 308 308 305
286 288 291 293 295 297 299 301 303 305 307 309 309 309 311 313 314 315 315 316 317 317 317 317 318 318 320 321 322 322 322 321 318 317 316 314 312 309 307 307 306 308 310 311 314 315 315 317 319 319 320 320 319 319 320 321 321 323 325 326 328 330 330 330 329 329 331 331 332 336 335 331 329 329 329 326 325 324 322 320 318 315 312 309 307 306 306 304
283 285 288 290 293 295 298 300 301 303 304 306 307 308 309 310 312 312 313 313 314 315 315 316 316 316 318 319 321 321 321 320 318 316 315 314 313 310 307 306 306 307 309 310 313 313 314 317 318 318 318 318 317 317 318 319 320 323 324 325 327 326 325 326 325 326 329 330 331 333 333 329 327 328 328 326 324 323 321 320 318 316 314 312 308 305 304 302
281 283 286 289 292 294 296 298 300 301 302 303 305 306 307 308 309 310 311 311 312 313 314 314 314 315 316 317 319 320 320 319 318 316 315 314 312 310 307 306 305 305 307 308 310 311 313 314 315 315 315 315 315 316 318 319 321 323 323 323 323 322 322 323 324 325 328 330 329 329 328 326 324 326 326 324 324 322 319 318 317 316 315 312 308 304 301 300
280 283 286 288 291 293 294 296 297 298 300 301 302 303 305 306 308 309 309 310 310 311 311 311 312 313 314 316 317 318 318 317 317 316 315 314 312 310 308 306 304 303 304 305 306 308 311 312 312 312 312 313 314 316 318 319 320 321 320 319 319 319 320 322 324 326 326 327 326 323 323 323 322 323 323 322 322 319 316 316 315 315 313 311 309 304 300 297
280 283 285 287 289 291 292 294 295 297 298 299 300 302 303 304 306 307 307 308 308 309 310 310 310 311 312 314 315 316 316 315 315 315 314 313 312 310 309 307 305 304 304 305 307 308 312 314 312 311 312 314 315 316 318 318 319 319 318 317 318 319 320 322 324 324 322 323 323 320 320 321 321 320 321 321 318 315 314 314 314 313 312 310 308 305 301 297
279 282 284 286 287 289 290 292 293 295 296 297 298 299 301 302 303 304 305 306 307 308 309 309 310 310 311 312 313 314 314 313 313 313 312 312 311 310 309 308 306 306 306 307 309 310 313 315 313 311 312 315 316 316 317 318 317 317 317 318 319 320 321 322 323 322 320 320 321 318 318 320 319 318 318 319 316 313 313 314 313 313 311 308 306 303 301 297
278 280 282 284 285 287 288 290 291 292 293 295 296 297 299 301 302 303 303 304 305 306 307 308 308 309 310 311 312 312 312 312 311 311 311 310 310 309 308 307 307 307 307 309 310 310 312 314 314 313 312 314 316 316 317 317 317 317 317 318 320 320 320 320 320 318 317 317 316 316 318 318 317 317 316 316 314 313 314 314 313 311 309 306 303 300 298 296
277 279 281 282 284 285 287 288 289 290 291 293 294 296 298 300 301 301 302 302 303 304 305 306 306 307 308 309 310 310 310 310 310 310 309 309 309 308 308 307 307 308 309 309 310 310 311 313 314 313 313 314 316 316 316 316 316 316 316 317 319 318 316 316 317 316 315 314 314 315 317 318 317 316 315 314 314 313 314 313 311 308 306 304 301 297 294 291
277 278 280 281 283 284 286 287 288 289 290 292 293 295 297 298 299 300 300 301 302 303 303 304 305 306 307 308 308 308 308 308 308 308 308 308 309 308 307 308 308 308 309 310 310 310 311 313 314 314 314 315 316 316 316 316 317 316 316 318 318 317 316 316 315 314 313 313 314 315 317 318 317 316 314 313 313 313 312 310 308 306 303 301 297 294 291 287
277 278 279 280 282 283 285 286 287 288 290 291 293 295 296 297 298 298 299 300 301 301 302 303 303 305 305 306 306 306 306 306 305 306 306 307 307 307 306 307 307 308 308 309 309 309 310 313 314 313 314 316 317 316 316 316 316 315 316 316 315 315 315 314 313 313 312 313 314 312 315 320 319 316 313 312 312 311 309 307 305 303 300 297 293 290 287 283
277 278 279 280 282 283 284 285 287 288 289 291 293 294 296 296 297 297 298 299 299 300 300 301 302 303 303 303 304 304 304 304 304 304 305 305 305 305 305 305 306 307 307 308 309 309 311 313 313 313 314 316 316 315 315 315 314 313 314 314 312 312 312 311 311 311 310 313 312 310 314 321 319 315 314 312 311 309 307 305 303 301 297 293 289 286 283 279
277 278 279 281 282 283 284 285 287 288 290 291 293 294 295 296 297 297 298 298 298 299 300 300 301 301 301 301 302 302 302 302 302 303 303 304 303 303 304 304 305 306 307 307 308 309 311 312 312 312 313 314 315 315 315 313 311 311 312 311 310 310 310 309 309 308 310 312 310 310 316 320 316 314 314 311 309 308 306 304 301 298 294 290 287 283 280 276
277 278 279 281 282 283 284 286 287 288 289 291 292 293 294 295 296 297 297 297 298 299 299 299 300 300 300 300 300 300 300 300 301 301 302 302 302 302 302 303 304 305 306 307 308 309 311 312 311 311 312 314 314 314 313 312 310 310 310 308 308 308 308 308 308 309 312 312 311 313 317 317 314 314 313 309 307 306 305 302 298 295 292 289 285 281 277 273
277 278 280 281 282 283 284 285 286 288 289 290 291 292 293 294 295 296 296 297 297 298 298 299 299 299 299 300 300 299 299 300 300 301 301 301 301 301 302 304 304 305 306 307 308 309 310 311 310 310 312 313 312 311 310 309 309 310 309 308 308 308 308 309 310 311 312 312 314 317 316 314 314 315 312 308 306 305 303 299 295 292 290 287 284 280 275 271
277 278 279 281 282 283 284 285 286 287 288 290 290 291 292 293 294 295 295 296 297 297 298 298 299 299 300 300 300 299 299 300 301 301 301 301 301 302 303 304 305 305 306 306 307 308 309 310 309 309 310 310 309 309 308 308 309 310 310 310 309 309 309 309 310 311 312 313 316 316 314 313 316 316 313 310 308 307 304 300 297 293 289 286 283 279 275 270
277 278 279 280 282 283 284 285 286 287 288 289 290 291 292 293 293 294 295 295 296 297 297 298 299 299 300 300 299 299 299 300 300 301 301 301 302 302 303 304 305 305 305 306 306 306 307 307 306 306 307 308 308 308 307 308 310 310 311 311 311 310 310 310 311 312 312 313 314 314 313 314 315 314 311 308 306 305 303 301 299 295 291 287 284 281 277 272
277 278 279 280 281 283 284 285 286 287 288 289 290 291 291 292 293 293 294 295 296 296 297 298 299 299 300 299 299 299 299 300 300 301 301 302 302 303 303 304 304 304 304 304 303 304 305 305 305 306 307 308 309 309 309 310 311 312 312 312 311 311 311 311 312 313 313 313 314 314 314 315 314 311 308 306 304 301 300 298 296 294 292 289 287 283 279 276
277 278 279 280 281 282 283 284 285 286 287 288 290 290 291 292 293 293 294 295 296 296 297 297 298 298 299 299 299 299 299 300 300 301 301 301 302 302 302 302 302 302 302 302 302 303 304 305 306 307 309 310 309 309 310 310 311 312 312 311 311 311 311 311 313 313 314 314 316 316 316 317 315 312 309 307 304 302 299 297 295 293 291 289 287 284 280 277
277 277 278 279 281 282 283 284 285 286 287 288 289 290 291 292 293 294 294 295 295 296 296 297 297 297 298 298 299 299 299 299 300 300 300 300 300 300 300 299 300 300 301 301 302 303 305 306 307 308 310 310 309 309 310 310 311 311 310 310 310 310 311 312 313 314 316 317 318 318 319 318 317 314 311 308 305 303 300 298 296 294 291 288 286 283 279 276
276 277 278 278 280 281 282 283 284 285 286 288 289 290 291 291 292 293 294 295 295 295 295 295 296 296 297 298 298 298 298 298 298 299 298 298 298 298 299 299 300 300 301 301 302 303 305 306 307 308 309 309 308 309 309 310 310 310 310 310 310 310 312 313 315 316 318 318 319 319 319 318 316 314 311 307 305 302 300 299 297 294 291 288 285 282 279 276
277 277 278 278 279 281 282 283 284 285 286 287 288 289 289 290 291 292 293 293 293 294 294 294 295 296 297 297 297 297 297 297 297 297 297 297 297 298 299 299 300 301 301 302 303 304 305 306 307 308 308 308 308 308 309 310 310 310 310 310 311 312 314 315 317 318 318 319 320 320 319 317 314 312 308 306 304 302 301 299 296 293 290 288 285 282 278 274
Height
10851 10851 10851 10851 10850 10850 10850 10849 10849 10848 10848 10847 10846 10845 10845 10844 10843 10842 10841 10840 10838 10837 10835 10833 10832 10830 10828 10826 10824 10822 10820 10818 10816 10814 10812 10810 10808 10806 10804 10802 10800 10798 10796 10794 10792 10790 10787 10785 10783 10781 10779 10777 10775 10774 10772 10770 10768 10765 10763 10761 10759 10757 10755 10752 10750 10748 10747 10747 10746 10745 10743 10743 10743 10742 10741 10740 10739 10738 10737 10737 10736 10735 10734 10733 10732 10730 10729 10727
10852 10851 10851 10851 10851 10850 10850 10850 10849 10848 10848 10847 10846 10846 10845 10844 10843 10842 10841 10840 10838 10837 10835 10834 10832 10830 10828 10827 10825 10823 10821 10819 10817 10815 10813 10810 10808 10806 10805 10803 10801 10799 10797 10795 10793 10791 10789 10787 10785 10782 10780 10779 10777 10775 10773 10771 10769 10767 10764 10762 10760 10758 10756 10754 10752 10749 10747 10746 10746 10745 10744 10742 10742 10741 10741 10739 10738 10738 10737 10737 10736 10735 10734 10733 10732 10730 10729 10727
10852 10851 10851 10851 10851 10850 10850 10850 10849 10848 10848 10847 10847 10846 10845 10844 10843 10842 10841 10840 10839 10837 10836 10834 10832 10831 10829 10827 10826 10824 10822 10820 10818 10816 10814 10812 10809 10807 10806 10804 10802 10800 10798 10796 10794 10792 10790 10788 10786 10784 10782 10780 10778 10776 10775 10773 10770 10768 10765 10763 10761 10759 10757 10755 10753 10751 10749 10747 10746 10745 10744 10742 10741 10740 10739 10739 10738 10737 10737 10736 10735 10734 10734 10732 10731 10730 10729 10727
10852 10851 10851 10851 10851 10851 10850 10850 10849 10849 10848 10847 10847 10846 10845 10844 10843 10842 10841 10840 10839 10837 10836 10834 10833 10831 10830 10828 10826 10824 10822 10821 10819 10817 10815 10813 10811 10809 10807 10805 10803 10801 10799 10797 10796 10794 10792 10790 10788 10785 10784 10782 10780 10778 10776 10774 10771 10769 10766 10764 10762 10760 10758 10756 10754 10752 10750 10749 10747 10745 10744 10742 10741 10740 10738 10738 10737 10736 10735 10735 10735 10734 10733 10732 10730 10729 10729 10727
10852 10851 10851 10851 10851 10851 10850 10850 10849 10849 10848 10847 10847 10846 10845 10844 10844 10843 10841 10840 10839 10837 10836 10835 10833 10832 10830 10829 10827 10825 10823 10821 10820 10818 10816 10814 10812 10810 10808 10806 10805 10803 10801 10799 10797 10795 10794 10792 10790 10788 10786 10784 10782 10780 10778 10775 10773 10770 10767 10765 10763 10761 10759 10757 10754 10752 10751 10749 10748 10746 10744 10742 10740 10739 10738 10737 10736 10735 10735 10734 10734 10733 10732 10731 10730 10729 10728 10727
10851 10851 10851 10851 10851 10851 10850 10850 10849 10849 10848 10847 10846 10846 10845 10845 10844 10843 10842 10840 10839 10838 10836 10835 10833 10832 10830 10829 10828 10826 10824 10822 10820 10819 10817 10815 10813 10811 10809 10808 10806 10804 10802 10801 10799 10797 10795 10794 10792 10790 10788 10786 10783 10781 10779 10777 10774 10771 10768 10766 10764 10762 10760 10757 10755 10753 10751 10750 10748 10746 10744 10742 10740 10739 10737 10736 10735 10735 10734 10733 10732 10732 10731 10730 10729 10728 10727 10726
10851 10851 10851 10851 10851 10851 10850 10850 10849 10848 10848 10847 10846 10846 10845 10845 10844 10843 10842 10841 10839 10838 10836 10835 10834 10832 10831 10829 10828 10826 10825 10823 10821 10819 10818 10816 10814 10813 10811 10809 10807 10805 10804 10802 10801 10799 10797 10795 10793 10791 10789 10787 10785 10782 10780 10777 10775 10772 10769 10767 10765 10763 10760 10758 10756 10753 10752 10750 10748 10747 10745 10743 10741 10739 10736 10735 10734 10734 10733 10732 10731 10730 10729 10728 10727 10727 10726 10725
10851 10851 10851 10851 10851 10850 10850 10849 10849 10848 10848 10847 10846 10846 10845 10845 10844 10843 10842 10841 10840 10838 10837 10835 10834 10832 10831 10829 10828 10827 10825 10823 10822 10820 10818 10817 10815 10814 10812 10810 10808 10807 10805 10803 10802 10800 10798 10796 10795 10792 10790 10788 10786 10783 10781 10778 10776 10773 10771 10768 10766 10764 10761 10759 10756 10754 10752 10750 10748 10746 10745 10743 10741 10739 10737 10735 10733 10732 10732 10731 10730 10729 10727 10726 10725 10725 10725 10724
10851 10851 10851 10851 10850 10850 10849 10849 10849 10848 10848 10847 10846 10846 10845 10844 10844 10843 10842 10841 10840 10839 10837 10835 10834 10833 10831 10830 10828 10827 10825 10824 10822 10821 10819 10818 10816 10814 10813 10811 10809 10808 10806 10804 10803 10801 10799 10797 10795 10793 10791 10789 10787 10784 10782 10779 10777 10775 10772 10770 10767 10764 10762 10759 10757 10755 10753 10750 10748 10746 10744 10742 10741 10739 10737 10735 10733 10732 10731 10730 10729 10728 10726 10725 10724 10723 10723 10723
10851 10851 10851 10851 10850 10850 10849 10848 10848 10848 10848 10847 10846 10846 10845 10844 10843 10843 10842 10841 10840 10839 10838 10836 10834 10833 10831 10830 10828 10827 10825 10824 10822 10821 10820 10818 10817 10815 10813 10812 10810 10808 10807 10805 10803 10801 10800 10798 10796 10794 10792 10790 10787 10785 10783 10780 10778 10776 10774 10771 10768 10765 10762 10760 10757 10754 10752 10750 10748 10746 10743 10741 10739 10738 10737 10736 10734 10732 10730 10729 10728 10727 10725 10724 10723 10722 10721 10721
10851 10851 10851 10851 10850 10850 10849 10848 10848 10847 10847 10847 10847 10846 10845 10844 10843 10842 10842 10841 10840 10839 10838 10837 10835 10833 10831 10830 10829 10827 10826 10824 10822 10821 10820 10818 10817 10816 10814 10812 10811 10809 10807 10805 10803 10802 10800 10798 10796 10794 10792 10790 10788 10785 10783 10781 10779 10777 10775 10772 10770 10766 10763 10760 10757 10754 10752 10750 10748 10746 10743 10741 10739 10737 10736 10735 10733 10732 10730 10728 10727 10726 10725 10723 10722 10721 10720 10719
10851 10851 10851 10851 10850 10850 10849 10848 10847 10847 10847 10847 10846 10846 10845 10844 10843 10842 10841 10840 10840 10839 10838 10837 10835 10833 10832 10830 10829 10827 10826 10824 10823 10821 10820 10818 10817 10816 10814 10812 10811 10809 10807 10805 10804 10802 10800 10798 10796 10794 10792 10790 10788 10786 10784 10781 10779 10777 10775 10773 10771 10767 10764 10761 10758 10755 10752 10750 10748 10746 10744 10741 10739 10736 10734 10733 10732 10731 10730 10728 10726 10725 10724 10723 10721 10720 10719 10718
10851 10851 10851 10850 10850 10849 10848 10848 10847 10846 10846 10846 10846 10845 10845 10844 10843 10842 10841 10840 10839 10839 10838 10837 10836 10834 10832 10830 10829 10828 10826 10824 10823 10821 10820 10818 10817 10815 10814 10812 10811 10809 10808 10806 10804 10802 10800 10798 10796 10794 10792 10790 10788 10786 10784 10781 10779 10777 10775 10773 10771 10768 10765 10762 10759 10756 10753 10750 10747 10746 10744 10742 10740 10737 10734 10732 10730 10729 10728 10727 10725 10724 10722 10721 10720 10719 10718 10717
10851 10850 10850 10850 10850 10849 10848 10847 10847 10846 10846 10845 10845 10845 10844 10843 10842 10841 10840 10840 10839 10839 10838 10837 10836 10834 10832 10831 10829 10828 10826 10824 10823 10821 10820 10818 10817 10815 10814 10812 10811 10809 10808 10806 10804 10802 10800 10798 10796 10794 10792 10790 10788 10786 10784 10781 10779 10777 10775 10773 10771 10768 10766 10763 10760 10757 10754 10751 10747 10745 10743 10742 10741 10738 10735 10732 10730 10728 10727 10726 10725 10723 10721 10720 10719 10718 10716 10715
10850 10850 10850 10850 10849 10849 10848 10847 10846 10845 10845 10845 10844 10844 10843 10843 10842 10841 10840 10839 10838 10838 10837 10837 10835 10834 10832 10831 10829 10828 10826 10824 10823 10821 10820 10818 10817 10815 10813 10812 10810 10809 10808 10806 10804 10802 10800 10799 10797 10794 10792 10790 10788 10786 10783 10781 10779 10776 10774 10772 10770 10768 10766 10764 10761 10758 10756 10753 10749 10746 10743 10741 10740 10739 10737 10733 10730 10728 10726 10725 10724 10722 10720 10718 10717 10716 10715 10714
10850 10850 10849 10849 10849 10848 10848 10847 10846 10845 10844 10844 10843 10843 10842 10842 10841 10840 10840 10839 10838 10837 10836 10836 10835 10833 10832 10830 10829 10827 10826 10824 10822 10821 10819 10818 10816 10815 10813 10812 10810 10808 10807 10806 10804 10802 10800 10799 10797 10795 10792 10790 10788 10785 10783 10781 10779 10776 10774 10771 10769 10767 10765 10763 10761 10758 10756 10754 10751 10748 10744 10742 10739 10738 10736 10734 10731 10729 10726 10724 10722 10721 10719 10717 10716 10714 10713 10712
10850 10849 10849 10849 10848 10847 10847 10846 10846 10845 10844 10843 10842 10842 10841 10840 10840 10839 10839 10838 10837 10836 10835 10835 10834 10833 10831 10830 10828 10827 10825 10824 10822 10821 10819 10818 10816 10814 10813 10811 10810 10808 10807 10805 10804 10802 10800 10799 10797 10795 10793 10790 10788 10785 10783 10781 10778 10776 10774 10771 10769 10766 10764 10761 10760 10758 10756 10754 10751 10748 10745 10742 10739 10736 10734 10733 10731 10728 10726 10723 10721 10719 10718 10716 10714 10713 10711 10710
10850 10849 10849 10848 10848 10847 10846 10846 10845 10844 10844 10843 10842 10841 10840 10839 10839 10838 10837 10837 10836 10835 10834 10833 10833 10832 10830 10829 10828 10826 10825 10823 10822 10820 10819 10817 10816 10814 10812 10811 10809 10808 10806 10805 10803 10801 10799 10798 10796 10795 10793 10790 10787 10785 10782 10780 10778 10775 10773 10771 10768 10766 10764 10761 10759 10757 10754 10752 10751 10748 10746 10743 10740 10736 10734 10731 10729 10727 10725 10723 10720 10718 10716 10715 10713 10711 10710 10708
10850 10849 10849 10848 10847 10847 10846 10845 10845 10844 10843 10842 10841 10840 10839 10838 10837 10837 10836 10835 10834 10833 10832 10832 10831 10830 10829 10828 10827 10825 10824 10823 10821 10820 10818 10816 10815 10813 10811 10810 10809 10807 10805 10804 10802 10801 10799 10797 10795 10794 10792 10789 10787 10784 10782 10779 10777 10775 10772 10770 10768 10765 10763 10761 10759 10756 10753 10751 10749 10747 10745 10743 10740 10737 10734 10731 10729 10728 10726 10723 10720 10718 10715 10713 10712 10710 10708 10706
10849 10849 10848 10848 10847 10846 10845 10845 10844 10843 10842 10842 10841 10840 10839 10838 10837 10836 10835 10833 10832 10831 10830 10830 10829 10829 10828 10827 10825 10824 10823 10821 10820 10818 10817 10815 10814 10812 10810 10809 10807 10806 10804 10803 10801 10800 10798 10796 10794 10792 10791 10789 10786 10784 10781 10779 10776 10774 10772 10769 10767 10764 10762 10760 10758 10755 10753 10750 10747 10745 10743 10741 10739 10736 10734 10731 10728 10727 10725 10723 10721 10718 10715 10712 10710 10708 10706 10704
10848 10848 10848 10847 10846 10845 10844 10844 10843 10842 10841 10840 10840 10839 10838 10837 10836 10835 10834 10832 10831 10830 10829 10827 10827 10826 10826 10825 10824 10822 10821 10820 10818 10817 10816 10814 10812 10811 10809 10808 10806 10805 10803 10801 10800 10798 10796 10794 10792 10791 10789 10787 10785 10783 10780 10778 10775 10773 10771 10769 10766 10764 10761 10758 10757 10754 10752 10749 10746 10744 10742 10739 10737 10735 10732 10730 10727 10725 10723 10722 10720 10717 10714 10711 10708 10706 10705 10703
10847 10847 10847 10846 10845 10845 10844 10843 10842 10841 10840 10839 10839 10838 10837 10836 10835 10834 10833 10831 10830 10829 10827 10826 10824 10823 10823 10822 10822 10821 10819 10818 10817 10815 10814 10813 10811 10809 10808 10806 10804 10803 10801 10800 10798 10797 10795 10793 10791 10789 10788 10786 10784 10782 10780 10778 10775 10773 10771 10769 10766 10763 10761 10758 10756 10753 10751 10748 10745 10742 10740 10737 10736 10733 10731 10729 10727 10724 10723 10721 10719 10716 10714 10711 10707 10703 10702 10701
10846 10846 10845 10845 10844 10843 10843 10842 10841 10841 10840 10839 10838 10837 10836 10835 10834 10832 10831 10830 10829 10827 10826 10824 10822 10821 10820 10819 10819 10818 10817 10816 10814 10813 10812 10810 10809 10807 10806 10804 10802 10800 10799 10797 10796 10795 10793 10791 10790 10788 10786 10785 10783 10781 10779 10777 10775 10772 10770 10768 10765 10763 10761 10758 10755 10752 10750 10747 10744 10741 10739 10736 10733 10732 10729 10727 10725 10723 10721 10719 10718 10715 10712 10710 10707 10702 10699 10698
10845 10844 10844 10843 10842 10842 10841 10840 10840 10839 10838 10838 10837 10836 10835 10833 10832 10831 10830 10828 10827 10826 10824 10822 10821 10819 10818 10817 10816 10815 10814 10813 10812 10810 10809 10808 10806 10805 10803 10801 10799 10797 10796 10795 10794 10792 10791 10789 10788 10786 10784 10783 10781 10779 10778 10775 10773 10771 10769 10767 10764 10762 10759 10757 10755 10752 10749 10746 10743 10740 10738 10734 10731 10729 10727 10725 10723 10721 10719 10717 10715 10713 10711 10708 10705 10702 10698 10695
10843 10842 10842 10842 10841 10840 10839 10839 10838 10837 10837 10836 10835 10834 10833 10832 10831 10830 10828 10827 10826 10824 10822 10821 10819 10818 10816 10814 10813 10812 10811 10810 10809 10808 10806 10805 10803 10802 10800 10799 10797 10794 10793 10791 10790 10789 10788 10786 10785 10783 10782 10780 10778 10777 10775 10773 10770 10768 10766 10764 10762 10760 10758 10755 10753 10751 10749 10746 10743 10739 10737 10734 10729 10725 10724 10722 10720 10718 10717 10715 10712 10710 10708 10706 10703 10701 10698 10694
10841 10840 10840 10839 10839 10838 10838 10837 10836 10835 10834 10834 10833 10832 10831 10830 10829 10828 10827 10825 10824 10823 10821 10819 10818 10816 10815 10813 10811 10810 10809 10808 10806 10805 10803 10802 10801 10799 10798 10796 10794 10792 10789 10787 10786 10785 10784 10782 10781 10779 10778 10776 10774 10773 10771 10770 10767 10765 10763 10761 10759 10757 10755 10752 10750 10748 10746 10744 10741 10738 10736 10734 10730 10724 10720 10718 10716 10714 10712 10711 10709 10707 10706 10704 10700 10698 10695 10693
10839 10839 10838 10837 10836 10836 10835 10834 10834 10833 10832 10831 10831 10830 10829 10828 10827 10826 10824 10823 10822 10821 10819 10818 10816 10814 10813 10812 10810 10809 10807 10806 10804 10802 10800 10799 10798 10796 10795 10793 10791 10789 10786 10783 10781 10781 10779 10778 10777 10776 10774 10772 10770 10769 10767 10766 10764 10761 10759 10757 10755 10753 10751 10748 10746 10744 10742 10740 10738 10734 10732 10731 10728 10725 10720 10715 10712 10710 10708 10706 10704 10703 10702 10701 10697 10693 10692 10690
10836 10836 10836 10835 10834 10834 10833 10832 10831 10830 10830 10829 10828 10827 10826 10825 10824 10823 10822 10821 10820 10818 10817 10815 10814 10812 10811 10809 10808 10807 10806 10804 10802 10800 10797 10795 10794 10792 10791 10790 10788 10786 10783 10781 10778 10776 10775 10774 10773 10772 10770 10768 10766 10764 10763 10761 10760 10758 10755 10753 10751 10749 10746 10744 10742 10740 10738 10736 10734 10731 10729 10727 10724 10722 10719 10715 10710 10706 10705 10702 10699 10698 10698 10696 10692 10689 10687 10685
10833 10833 10833 10833 10832 10832 10831 10830 10829 10828 10827 10826 10825 10824 10823 10822 10821 10820 10819 10818 10817 10815 10814 10812 10811 10809 10808 10806 10804 10804 10803 10801 10799 10797 10795 10793 10791 10789 10788 10786 10784 10782 10781 10778 10775 10772 10771 10770 10769 10768 10766 10764 10761 10759 10758 10757 10755 10754 10751 10749 10746 10744 10741 10739 10736 10735 10733 10732 10730 10728 10725 10723 10720 10717 10716 10714 10709 10705 10701 10698 10694 10692 10692 10690 10687 10685 10683 10681
10830 10830 10830 10830 10830 10829 10828 10827 10826 10825 10824 10823 10822 10821 10820 10819 10818 10816 10815 10815 10814 10813 10811 10810 10808 10806 10805 10804 10802 10800 10799 10798 10796 10794 10792 10790 10788 10787 10785 10783 10781 10779 10778 10775 10773 10769 10766 10766 10764 10763 10761 10760 10757 10754 10753 10751 10749 10748 10747 10744 10741 10739 10736 10734 10731 10729 10728 10726 10725 10724 10721 10719 10717 10714 10711 10709 10708 10705 10700 10697 10693 10689 10687 10684 10681 10680 10678 10676
10827 10827 10827 10827 10827 10826 10825 10824 10823 10822 10821 10821 10820 10818 10817 10816 10815 10814 10812 10811 10810 10809 10809 10807 10805 10804 10802 10801 10800 10798 10796 10794 10793 10791 10789 10787 10785 10783 10781 10779 10777 10775 10774 10771 10769 10767 10763 10762 10761 10759 10757 10755 10753 10750 10748 10745 10743 10741 10740 10738 10736 10733 10731 10729 10727 10726 10724 10720 10718 10718 10717 10714 10712 10710 10707 10703 10702 10701 10698 10695 10692 10688 10684 10680 10676 10674 10673 10671
10824 10824 10824 10823 10823 10823 10823 10822 10821 10820 10819 10818 10817 10815 10814 10813 10812 10811 10809 10808 10806 10805 10805 10803 10802 10800 10798 10797 10796 10795 10794 10792 10790 10787 10786 10784 10782 10779 10777 10776 10773 10771 10770 10768 10766 10763 10759 10758 10757 10755 10753 10751 10748 10746 10743 10741 10738 10736 10734 10731 10730 10728 10726 10724 10722 10721 10720 10716 10713 10712 10711 10708 10706 10705 10703 10699 10695 10694 10692 10690 10688 10685 10682 10678 10673 10669 10667 10666
10820 10820 10820 10820 10819 10819 10819 10818 10818 10817 10815 10814 10813 10812 10811 10809 10808 10807 10805 10804 10803 10801 10800 10799 10797 10795 10794 10793 10792 10790 10789 10788 10786 10784 10782 10780 10778 10776 10773 10771 10769 10767 10765 10764 10762 10759 10755 10753 10751 10748 10747 10745 10743 10740 10738 10736 10733 10731 10727 10724 10723 10721 10720 10720 10718 10716 10715 10712 10708 10706 10706 10703 10700 10699 10698 10695 10692 10689 10686 10684 10682 10679 10676 10674 10671 10666 10662 10660
10817 10816 10816 10816 10815 10815 10814 10814 10814 10813 10812 10811 10810 10809 10807 10806 10804 10803 10801 10800 10799 10798 10796 10795 10793 10791 10789 10788 10787 10786 10785 10783 10781 10780 10778 10776 10774 10772 10770 10767 10765 10763 10761 10760 10758 10755 10752 10749 10746 10744 10742 10739 10737 10735 10733 10730 10727 10725 10720 10717 10716 10714 10714 10713 10711 10709 10709 10708 10704 10700 10700 10698 10694 10692 10691 10688 10686 10683 10680 10678 10675 10674 10671 10668 10666 10663 10658 10654
10813 10812 10812 10812 10811 10811 10810 10810 10809 10809 10808 10807 10806 10805 10804 10802 10801 10799 10797 10795 10794 10793 10792 10791 10789 10787 10785 10783 10782 10780 10779 10778 10777 10775 10773 10771 10770 10768 10766 10764 10762 10760 10758 10757 10755 10753 10751 10747 10742 10740 10739 10736 10733 10731 10728 10724 10721 10720 10716 10712 10710 10708 10706 10706 10704 10701 10701 10702 10701 10695 10693 10692 10687 10685 10684 10681 10678 10674 10672 10670 10668 10667 10666 10663 10659 10657 10654 10650
10809 10808 10808 10808 10807 10807 10806 10806 10805 10804 10803 10803 10802 10800 10799 10798 10797 10795 10793 10791 10789 10788 10787 10786 10784 10782 10780 10779 10777 10775 10774 10772 10771 10770 10767 10766 10764 10763 10761 10759 10757 10755 10753 10752 10750 10749 10747 10744 10738 10734 10733 10732 10729 10726 10724 10720 10715 10713 10711 10707 10704 10700 10698 10696 10696 10695 10693 10695 10697 10691 10686 10685 10680 10677 10677 10675 10670 10666 10664 10662 10661 10660 10659 10657 10654 10649 10647 10644
10805 10804 10804 10804 10803 10802 10802 10801 10800 10799 10799 10798 10797 10796 10795 10794 10793 10792 10790 10787 10785 10782 10781 10780 10778 10776 10775 10773 10772 10770 10769 10767 10765 10764 10763 10761 10760 10758 10756 10755 10752 10750 10747 10745 10745 10742 10741 10740 10735 10729 10725 10723 10722 10718 10716 10714 10710 10706 10703 10700 10697 10693 10688 10686 10686 10686 10684 10685 10689 10687 10681 10678 10673 10667 10666 10665 10659 10654 10655 10654 10651 10651 10650 10648 10647 10643 10640 10637
10802 10801 10800 10799 10799 10798 10797 10796 10796 10795 10794 10793 10792 10792 10791 10789 10788 10787 10785 10783 10781 10778 10776 10774 10772 10771 10769 10768 10766 10764 10763 10761 10759 10758 10757 10755 10754 10752 10752 10751 10748 10746 10743 10741 10740 10737 10736 10736 10733 10728 10721 10717 10715 10710 10707 10705 10702 10698 10695 10692 10690 10684 10679 10676 10675 10676 10674 10674 10678 10681 10679 10672 10665 10660 10656 10655 10649 10642 10643 10644 10641 10640 10639 10637 10637 10635 10632 10629
10797 10796 10796 10794 10794 10793 10792 10791 10791 10790 10789 10788 10787 10786 10785 10784 10783 10782 10780 10779 10777 10774 10772 10769 10767 10766 10764 10762 10761 10759 10757 10755 10753 10751 10750 10749 10748 10745 10744 10744 10743 10741 10739 10737 10735 10732 10731 10730 10728 10725 10719 10714 10710 10706 10702 10699 10695 10691 10687 10684 10682 10678 10672 10667 10665 10663 10661 10660 10661 10668 10675 10669 10657 10653 10647 10641 10639 10634 10631 10632 10629 10629 10628 10626 10625 10623 10622 10621
10790 10790 10790 10789 10788 10787 10786 10785 10784 10784 10783 10782 10781 10781 10780 10779 10777 10776 10775 10773 10771 10770 10767 10765 10763 10761 10759 10756 10755 10753 10751 10749 10747 10745 10744 10742 10741 10739 10736 10735 10734 10733 10732 10731 10729 10726 10724 10724 10721 10717 10713 10708 10704 10700 10696 10691 10687 10684 10680 10675 10671 10668 10664 10660 10657 10653 10648 10647 10644 10645 10661 10664 10649 10644 10640 10631 10628 10625 10620 10620 10617 10616 10617 10614 10612 10611 10609 10609
10783 10784 10783 10782 10782 10781 10780 10779 10778 10777 10776 10775 10775 10774 10774 10773 10772 10770 10769 10767 10766 10764 10762 10760 10758 10756 10754 10751 10749 10747 10745 10743 10741 10740 10738 10736 10735 10733 10730 10728 10726 10725 10723 10722 10721 10719 10717 10716 10714 10709 10705 10701 10696 10691 10687 10684 10679 10675 10672 10669 10663 10658 10654 10648 10646 10643 10637 10638 10632 10622 10639 10654 10639 10628 10628 10621 10617 10613 10608 10607 10605 10604 10604 10600 10598 10598 10596 10596
10777 10776 10776 10775 10775 10774 10773 10772 10771 10771 10770 10769 10769 10768 10767 10766 10765 10763 10762 10761 10760 10758 10756 10754 10753 10751 10748 10746 10743 10741 10739 10737 10735 10733 10732 10730 10728 10726 10724 10722 10720 10718 10715 10714 10712 10710 10708 10707 10705 10701 10697 10695 10691 10685 10679 10676 10671 10666 10663 10661 10656 10651 10645 10638 10635 10631 10626 10628 10622 10606 10618 10637 10627 10614 10612 10606 10602 10600 10595 10593 10592 10590 10589 10586 10585 10585 10584 10583
10770 10769 10769 10768 10768 10767 10766 10765 10764 10764 10763 10763 10762 10761 10760 10758 10757 10755 10755 10754 10753 10752 10750 10748 10747 10745 10743 10740 10738 10735 10733 10732 10729 10726 10725 10723 10720 10718 10717 10715 10713 10711 10708 10706 10704 10701 10699 10698 10696 10693 10689 10686 10683 10679 10674 10669 10663 10659 10656 10652 10648 10643 10638 10632 10627 10622 10618 10619 10611 10597 10604 10616 10609 10600 10597 10589 10585 10586 10582 10579 10578 10575 10573 10571 10571 10571 10570 10570
10763 10763 10762 10761 10760 10760 10759 10758 10757 10757 10757 10756 10755 10755 10753 10752 10750 10748 10746 10745 10744 10744 10743 10741 10739 10738 10736 10734 10731 10728 10726 10726 10724 10720 10717 10715 10713 10710 10709 10707 10704 10703 10700 10697 10696 10693 10690 10688 10685 10683 10682 10678 10672 10667 10664 10663 10658 10654 10649 10644 10639 10635 10628 10622 10617 10611 10607 10606 10599 10588 10590 10595 10591 10586 10580 10570 10569 10573 10569 10564 10562 10561 10558 10556 10555 10556 10556 10554
10757 10756 10755 10754 10753 10753 10751 10750 10750 10749 10749 10749 10749 10748 10748 10746 10743 10741 10739 10737 10736 10735 10735 10733 10731 10730 10728 10726 10724 10721 10718 10717 10717 10714 10711 10708 10706 10703 10701 10699 10696 10695 10693 10689 10686 10684 10682 10679 10674 10671 10672 10670 10665 10658 10652 10651 10649 10646 10642 10635 10630 10625 10617 10610 10604 10598 10591 10586 10584 10577 10568 10568 10573 10571 10560 10549 10549 10554 10554 10550 10548 10546 10544 10541 10539 10540 10540 10539
10749 10749 10748 10747 10746 10745 10744 10743 10743 10742 10741 10741 10741 10740 10740 10739 10737 10735 10733 10730 10728 10727 10726 10725 10723 10722 10720 10718 10717 10714 10711 10709 10708 10706 10703 10700 10698 10695 10693 10691 10688 10686 10684 10681 10677 10675 10674 10671 10665 10662 10661 10659 10657 10653 10644 10639 10638 10636 10631 10625 10618 10613 10608 10602 10595 10590 10580 10571 10572 10568 10551 10544 10551 10551 10540 10531 10527 10528 10528 10527 10528 10528 10528 10525 10523 10522 10522 10522
10742 10741 10740 10739 10738 10737 10736 10735 10734 10734 10733 10732 10732 10732 10731 10731 10730 10728 10726 10723 10721 10719 10718 10716 10714 10713 10712 10710 10708 10706 10703 10702 10699 10697 10695 10692 10689 10687 10684 10682 10681 10677 10675 10672 10669 10666 10666 10664 10658 10654 10653 10650 10647 10644 10636 10629 10627 10623 10618 10612 10604 10598 10595 10590 10584 10580 10572 10562 10563 10560 10543 10532 10533 10530 10524 10518 10515 10513 10509 10505 10503 10503 10504 10504 10504 10504 10503 10502
10734 10734 10732 10731 10731 10729 10728 10727 10726 10725 10724 10724 10724 10723 10722 10721 10720 10720 10719 10716 10713 10711 10711 10709 10706 10704 10703 10700 10699 10697 10694 10693 10691 10688 10687 10683 10680 10678 10675 10671 10670 10668 10665 10663 10661 10658 10657 10656 10651 10646 10644 10641 10636 10631 10624 10618 10614 10609 10603 10598 10591 10583 10578 10575 10572 10567 10558 10550 10549 10545 10534 10523 10516 10510 10508 10503 10499 10499 10497 10493 10488 10483 10480 10480 10481 10482 10482 10481
10726 10726 10725 10723 10723 10721 10720 10719 10719 10717 10716 10716 10715 10714 10713 10713 10711 10710 10710 10708 10706 10703 10702 10702 10699 10696 10695 10692 10690 10688 10685 10683 10682 10679 10677 10674 10671 10669 10667 10663 10660 10658 10655 10652 10649 10647 10645 10644 10641 10637 10635 10629 10622 10618 10613 10607 10603 10597 10590 10584 10578 10571 10565 10559 10556 10551 10542 10534 10529 10523 10516 10509 10496 10487 10486 10483 10477 10475 10474 10473 10471 10467 10462 10459 10458 10459 10459 10458
10717 10717 10717 10716 10715 10713 10712 10711 10710 10710 10708 10708 10708 10707 10705 10704 10703 10701 10700 10699 10697 10694 10693 10692 10691 10689 10687 10684 10681 10679 10676 10674 10672 10671 10668 10665 10662 10660 10659 10656 10652 10649 10645 10641 10637 10634 10632 10631 10628 10625 10625 10620 10611 10607 10603 10596 10592 10587 10581 10575 10567 10561 10555 10548 10541 10534 10525 10517 10511 10503 10495 10490 10480 10468 10462 10460 10456 10452 10449 10447 10446 10444 10441 10438 10437 10437 10436 10436
10707 10707 10707 10708 10708 10706 10703 10702 10702 10702 10701 10700 10699 10699 10697 10695 10694 10693 10692 10689 10687 10685 10684 10683 10682 10680 10678 10676 10673 10670 10668 10665 10663 10661 10659 10657 10654 10650 10648 10646 10643 10640 10636 10631 10627 10623 10620 10619 10616 10612 10613 10609 10599 10595 10593 10588 10582 10576 10569 10564 10557 10550 10545 10537 10528 10518 10507 10498 10493 10486 10478 10471 10465 10456 10446 10441 10437 10432 10427 10424 10420 10418 10416 10414 10415 10416 10415 10415
10696 10697 10696 10698 10701 10699 10695 10693 10693 10692 10692 10692 10690 10690 10689 10687 10685 10684 10684 10682 10678 10675 10674 10673 10671 10671 10670 10667 10664 10662 10660 10657 10655 10652 10650 10647 10644 10641 10638 10636 10632 10630 10627 10621 10617 10613 10608 10607 10603 10598 10599 10599 10589 10582 10581 10578 10571 10563 10556 10549 10544 10539 10531 10524 10517 10506 10492 10483 10475 10467 10459 10451 10447 10443 10434 10426 10420 10413 10406 10401 10395 10391 10390 10391 10393 10394 10394 10393